SCP
0 0 0 0 0 0 0 0 0 0 0 0 0 0 0 0 0 0 0 0 0 0 0 0 0 0 0 0 0 0 0 0 0 0 0 0 0 0 0 0 0 0 0 0
0 0 0 0 0 0 0 0 0 0 0 0 0 0 0 0 0 0 0 0 0 0 0 0 0 0 0 0 0 0 0 0 0 0 0 0 0 0 0 0 0 0 0 0
0 0 0 0 0 0 0 0 0 0 0 0 0 -0 0 0 0 0 0 0 0 0 0 0 0 0 0 0 0 0 0 0 0 0 0 0 0 0 0 0 0 0 0 0
0 0 0 0 0 0 0 0 0 0 0 0 0 -0 0 0 0 0 0 0 0 0 0 0 0 0 0 0 0 0 0 0 0 0 0 0 0 0 0 0 0 0 0 0
0 0 0 0 0 0 0 0 0 0 0 0 0 0 0 0 0 0 0 0 0 0 0 0 0 0 0 0 0 0 0 0 0 0 0 0 0 0 0 0 0 0 0 0
0 0 0 0 0 0 0 0 0 0 0 0 0 0 -0 0 0 0 0 0 0 0 0 0 0 0 0 0 0 0 0 0 0 0 0 0 0 0 0 0 0 0 0 0
0 0 0 0 0 0 0 0 0 0 0 0 0 0 0 0 0 0 0 0 0 0 0 0 0 0 0 0 0 0 0 0 0 0 0 0 0 0 0 0 0 0 0 0
0 0 0 0 0 0 0 0 0 0 0 0 0 0 0 0 0 0 0 0 0 0 0 0 0 0 0 0 0 0 0 0 0 0 0 0 0 0 0 0 0 0 0 0
0 0 0 0 0 0 0 0 0 0 0 0 0 0 0 0 0 0 0 0 0 0 0 0 0 0 0 0 0 0 0 0 0 0 0 0 0 0 0 0 0 0 0 0
0 0 0 0 0 0 0 0 0 0 0 0 0 0 0 0 0 0 -0 0 0 0 0 0 0 0 0 0 0 0 0 0 0 0 0 0 0 0 0 0 0 0 0 0
0 0 0 0 0 0 0 0 0 0 0 0 0 0 0 0 0 0 0 0 0 0 0 0 0 0 0 0 0 0 0 0 0 0 0 0 0 0 0 0 0 0 0 0
0 0 0 0 0 0 0 0 0 0 0 0 0 0 0 0 0 0 0 0 0 0 0 0 0 0 0 0 0 0 0 0 0 0 0 0 0 0 0 0 0 0 0 0
0 0 0 0 0 0 0 0 0 0 0 0 0 0 0 0 0 0 0 0 0 0 0 0 0 0 0 0 0 0 0 0 0 0 0 0 0 0 0 0 0 0 0 0
0 0 0 0 0 0 0 0 0 0 0 0 0 0 0 0 0 0 0 0 0 0 0 0 0 0 0 0 0 0 0 0 0 0 0 0 0 0 0 0 0 0 0 0
0 0 0 0 0 0 0 0 0 0 0 0 0 0 0 0 0 0 0 0 0 0 0 0 0 0 0 0 0 0 0 0 0 0 0 0 0 0 0 0 0 0 0 0
0 0 0 0 0 0 0 0 0 0 0 0 0 0 0 0 0 0 0 0 0 0 0 0 0 0 0 0 0 0 0 0 0 0 0 0 0 0 0 0 0 0 0 0
0 0 0 0 0 0 0 0 0 0 0 0 0 0 0 0 0 0 0 0 0 0 0 0 0 0 0 0 0 0 0 0 0 0 0 0 0 0 0 0 0 0 0 0
0 0 0 0 0 0 0 0 0 0 0 0 0 0 0 0 0 0 0 0 0 0 0 0 0 0 0 0 0 0 0 0 0 0 0 0 0 0 0 0 0 0 0 0
0 0 0 0 0 0 0 0 0 0 0 0 0 0 0 0 0 0 0 0 0 0 0 0 0 0 0 0 0 0 0 0 0 0 0 0 0 0 0 0 0 0 0 0
0 0 0 0 0 0 0 0 0 0 0 0 0 0 0 0 0 0 0 0 0 0 0 0 0 0 0 0 0 0 0 0 0 0 0 0 0 0 0 0 0 0 0 0
0 0 0 0 0 0 0 0 0 0 0 0 0 0 0 0 0 0 0 0 0 0 0 0 0 0 0 0 0 0 0 0 0 0 0 0 0 0 0 0 0 0 0 0
0 0 0 0 0 0 0 0 0 0 0 0 0 0 0 0 0 0 0 0 0 0 0 0 0 0 0 0 0 0 0 0 0 0 0 0 0 0 0 0 0 0 0 0
0 0 0 0 0 0 0 0 0 0 0 0 0 0 0 0 0 0 0 0 0 0 0 0 0 0 0 0 0 0 0 0 0 0 0 0 0 0 0 0 0 0 0 0
0 0 0 0 0 0 0 0 0 0 0 0 0 0 0 0 0 0 0 0 0 0 0 0 0 0 0 0 0 0 0 0 0 0 0 0 0 0 0 0 0 0 0 0
0 0 0 0 0 0 0 0 0 0 0 0 0 0 0 0 0 0 0 0 0 0 0 0 0 0 0 0 0 0 0 0 0 0 0 0 0 0 0 0 0 0 0 0
0 0 0 0 0 0 0 0 0 0 0 0 0 0 0 0 0 0 0 0 0 0 0 0 0 0 0 0 0 0 0 0 0 0 0 0 0 0 0 0 0 0 0 0
Wind_Speed_500mb
8 7 15 29 19 8 8 7 10 8 6 5 16 21 36 36 41 48 58 62 77 82 74 65 61 58 56 55 53 50 47 49 56 57 60 63 63 53 51 43 45 46 39 33
6 17 28 9 11 10 5 8 13 13 10 12 21 32 22 26 28 57 78 82 86 84 83 73 69 64 59 55 53 51 48 49 53 53 59 59 59 68 50 51 47 42 45 35
16 9 12 18 9 12 11 14 9 14 12 9 13 25 17 20 48 68 79 93 85 91 88 80 77 72 64 62 58 54 51 49 53 59 59 59 70 64 60 61 53 48 44 43
14 11 11 11 11 18 12 17 14 10 2 10 6 29 14 15 23 17 63 86 69 76 75 77 82 78 73 65 57 53 53 55 57 59 65 65 67 65 65 60 53 54 48 44
13 12 13 11 13 15 13 11 13 5 6 7 3 7 3 6 10 22 43 58 62 66 74 79 83 85 73 64 60 56 55 56 55 59 63 78 71 68 69 68 63 52 49 47
8 5 13 14 4 11 12 11 11 8 4 11 21 15 58 4 11 12 11 25 34 45 57 65 71 82 74 67 61 58 56 60 59 71 75 78 77 65 77 72 68 64 59 56
4 10 6 10 10 7 8 12 3 6 2 16 7 13 35 19 21 12 18 44 40 40 50 58 67 80 79 72 64 59 60 64 65 77 77 80 72 83 80 76 72 71 68 62
14 10 24 13 21 16 14 15 11 14 9 9 5 16 12 13 27 27 29 27 25 30 43 52 60 76 79 71 65 61 64 66 70 76 77 79 80 79 80 78 75 71 67 60
13 11 2 6 4 21 11 11 8 9 4 3 10 15 17 19 20 39 16 22 20 27 40 48 56 70 73 69 64 62 67 71 74 75 74 73 74 77 77 71 71 68 63 57
8 4 1 3 8 8 12 12 8 5 7 12 11 12 18 17 18 14 12 23 22 26 35 43 54 67 67 62 58 62 64 69 71 73 74 75 76 79 74 76 73 68 62 55
12 7 1 5 11 20 7 7 4 9 9 8 6 13 14 12 5 14 18 19 24 27 33 41 53 60 60 60 62 63 68 71 72 71 71 74 75 76 80 79 74 66 57 51
16 8 8 15 2 2 5 18 17 9 12 8 4 23 6 8 6 12 22 12 17 25 30 40 51 56 59 60 61 66 71 72 72 72 73 73 77 81 84 78 72 64 57 51
18 6 4 7 2 1 11 11 29 10 6 15 10 18 0 1 7 9 12 7 11 21 30 41 53 59 61 63 64 69 73 73 74 75 73 75 82 88 85 78 70 62 56 50
21 8 14 24 9 10 12 15 21 24 14 13 34 45 41 5 11 11 6 7 11 20 31 40 54 61 65 69 71 75 76 74 76 77 76 80 90 90 87 80 72 64 57 49
11 18 18 20 10 8 13 14 29 38 54 25 45 31 63 23 23 35 36 32 30 35 42 50 58 66 69 73 77 79 83 83 81 80 79 86 91 91 86 80 71 64 57 49
8 12 19 32 32 23 22 19 36 37 39 36 52 46 63 12 22 33 48 39 41 48 56 59 60 66 70 76 81 83 87 86 85 84 86 90 96 94 88 81 73 66 58 52
10 24 18 47 22 21 22 65 35 36 38 41 42 62 56 17 33 57 52 44 63 71 71 68 68 68 71 74 79 85 87 85 87 88 91 95 98 95 89 82 75 68 61 55
11 6 3 8 5 26 19 7 25 37 45 47 47 45 39 51 65 57 55 56 68 70 73 69 69 67 65 68 74 79 83 86 87 89 93 97 97 94 89 85 79 73 65 58
21 22 16 13 24 18 6 7 14 19 34 40 38 43 64 81 32 72 62 59 63 66 64 63 62 66 60 62 65 75 80 82 86 93 96 97 97 96 96 91 85 77 70 62
9 9 14 7 9 12 8 6 11 9 19 13 36 41 38 14 7 24 27 28 29 35 42 39 39 44 50 53 59 68 75 81 93 100 98 97 99 101 99 94 88 79 70 65
9 7 25 16 8 6 12 9 16 10 13 4 13 27 11 12 18 12 16 15 10 11 15 19 23 31 37 47 55 64 71 74 81 93 99 99 102 97 95 93 89 83 80 73
13 13 7 6 10 14 27 11 18 9 6 2 4 8 16 28 31 22 10 7 6 7 13 18 23 30 39 46 52 60 62 63 74 79 86 92 92 93 94 95 92 88 88 76
7 12 10 17 13 2 43 5 26 14 12 6 7 9 12 12 20 14 10 10 8 8 13 19 24 28 37 43 49 59 59 63 67 70 76 82 90 94 97 99 96 92 96 84
10 8 6 3 10 10 15 27 19 20 18 11 9 10 11 12 16 16 9 6 3 3 5 8 14 22 31 36 42 45 49 54 58 61 66 72 79 86 97 100 101 100 106 99
6 9 7 8 10 9 25 29 23 31 28 20 19 16 14 14 16 16 11 8 6 6 8 9 9 10 12 18 25 31 36 41 46 50 54 60 69 82 91 100 112 114 113 108
14 13 10 11 15 7 12 12 19 37 38 38 30 23 21 20 17 15 14 12 10 11 13 14 11 12 13 14 14 19 25 30 36 44 48 51 56 64 75 87 100 104 107 105
Wind_Direction_500mb
157 130 198 211 200 164 150 199 235 247 246 205 235 239 259 246 230 243 244 239 236 236 237 232 231 226 222 220 221 221 219 208 201 204 207 214 221 216 201 201 213 206 203 216
71 224 220 146 162 199 186 214 248 298 232 191 269 260 242 243 229 239 242 243 241 238 235 228 224 222 221 222 221 219 217 214 207 209 210 209 218 206 213 209 220 212 198 206
180 213 181 172 160 169 218 213 239 232 315 241 305 270 226 246 233 243 248 252 249 242 235 225 221 221 219 220 219 218 216 215 210 205 207 209 202 225 201 183 197 181 184 183
239 228 150 163 192 172 223 202 201 240 96 257 10 294 200 228 239 225 245 246 244 243 243 235 224 222 220 219 217 217 214 212 209 212 214 221 207 188 190 186 180 177 179 173
236 176 178 184 198 159 222 137 177 196 195 327 185 271 106 194 251 254 253 252 252 252 249 241 229 223 218 217 216 213 211 208 207 204 205 196 195 202 189 181 176 180 176 174
224 148 154 206 110 151 142 85 59 58 69 271 194 174 283 181 217 254 304 271 263 255 249 238 229 219 213 213 212 212 210 207 207 212 213 212 203 200 185 183 178 174 177 176
139 212 206 166 91 51 116 103 313 331 9 246 329 208 252 309 293 246 284 288 291 258 238 228 221 211 209 209 207 209 207 205 206 203 205 199 207 195 189 185 183 178 179 178
175 263 174 191 186 182 189 162 160 205 208 274 299 240 251 239 274 277 278 290 287 248 232 228 219 210 208 208 208 206 206 206 209 211 214 214 205 194 188 186 184 180 177 175
176 267 200 189 117 152 191 196 170 82 84 4 233 290 295 266 279 268 282 278 256 240 230 224 215 208 207 209 210 209 208 208 210 213 211 206 204 194 194 190 185 182 179 177
212 240 205 124 106 45 162 161 95 78 197 237 273 265 234 282 278 328 272 256 245 225 228 225 213 206 208 211 212 211 215 214 213 213 210 206 199 197 196 190 185 184 182 180
159 166 242 116 203 176 136 170 166 131 160 192 293 258 215 233 272 299 301 287 237 228 222 217 212 210 211 211 214 214 211 213 214 211 209 205 201 196 191 189 187 185 183 180
203 155 182 201 174 303 249 191 175 148 207 225 147 268 175 212 273 301 312 311 235 228 222 216 213 215 216 216 216 213 210 212 214 213 209 203 197 193 192 190 188 185 184 179
174 187 166 314 46 357 216 210 200 132 75 208 180 259 231 321 287 286 303 309 226 224 217 217 217 217 221 222 218 214 214 214 214 213 210 202 197 193 192 191 189 187 185 183
146 160 193 228 191 137 186 184 199 186 207 161 227 259 257 311 275 273 303 284 254 238 236 228 220 220 222 224 220 217 216 217 216 214 210 202 197 197 195 192 191 189 187 187
176 207 200 245 224 203 197 190 200 206 223 199 248 226 260 224 238 261 276 261 235 238 239 241 232 226 222 221 222 220 219 217 216 216 211 206 203 198 196 194 192 191 190 188
205 236 171 251 230 229 236 221 212 217 236 233 248 252 256 202 254 266 258 252 240 244 252 248 241 234 230 225 224 222 221 219 217 215 212 208 202 199 197 195 194 193 192 191
199 222 205 242 226 199 226 235 223 222 231 227 232 242 263 259 260 257 260 261 263 265 264 259 250 243 238 233 228 225 224 221 217 214 212 207 204 200 197 197 196 197 197 196
179 241 206 244 150 221 236 145 218 211 232 230 238 250 257 257 264 271 267 267 271 273 268 260 252 249 244 236 230 226 223 221 216 214 212 208 205 203 201 200 200 200 200 199
214 220 249 247 248 266 240 219 154 165 244 231 228 244 254 260 279 280 277 277 272 269 270 277 268 252 241 235 229 224 221 219 216 216 214 211 208 207 206 204 203 202 201 197
199 216 219 213 206 228 266 238 161 80 265 193 198 232 244 166 246 271 282 276 279 272 266 268 261 246 239 236 229 225 224 221 219 218 216 214 213 212 211 209 206 205 203 202
169 187 214 223 244 242 255 162 161 137 239 239 215 251 213 201 226 269 294 282 284 283 265 254 242 240 239 233 227 226 224 227 226 221 219 217 216 218 219 214 211 208 206 207
178 176 187 199 224 247 172 117 184 194 126 150 268 280 259 254 258 252 252 251 261 245 235 234 235 229 224 226 224 223 227 229 225 226 226 225 223 224 220 218 216 213 212 220
231 194 190 198 208 263 181 182 195 164 151 187 249 269 261 240 233 244 255 262 253 253 250 248 243 234 233 234 234 233 232 229 230 229 233 228 226 223 225 224 221 223 218 225
212 188 218 98 250 229 226 238 220 214 230 230 252 270 262 239 221 218 213 222 216 237 245 236 229 230 233 237 239 243 241 240 241 238 233 233 230 227 223 225 224 226 223 230
183 143 189 269 272 293 250 243 242 240 256 249 237 231 220 214 208 204 208 228 233 235 232 218 217 217 218 226 234 238 240 240 239 240 239 236 234 232 230 228 228 230 232 234
190 184 181 218 224 210 251 275 278 243 242 236 233 227 222 217 220 223 229 242 252 241 227 217 200 167 168 186 209 223 230 234 236 237 239 239 238 237 236 235 234 233 231 232
Wind_Speed_850mb
8 7 15 29 19 8 8 7 10 8 6 5 16 21 36 36 41 48 58 62 77 82 74 65 61 58 56 55 53 50 47 49 56 57 60 63 63 53 51 43 45 46 39 33
6 17 28 9 11 10 5 8 13 13 10 12 21 32 22 26 28 57 78 82 86 84 83 73 69 64 59 55 53 51 48 49 53 53 59 59 59 68 50 51 47 42 45 35
16 9 12 18 9 12 11 14 9 14 12 9 13 25 17 20 48 68 79 93 85 91 88 80 77 72 64 62 58 54 51 49 53 59 59 59 70 64 60 61 53 48 44 43
14 11 11 11 11 18 12 17 14 10 2 10 6 29 14 15 23 17 63 86 69 76 75 77 82 78 73 65 57 53 53 55 57 59 65 65 67 65 65 60 53 54 48 44
13 12 13 11 13 15 13 11 13 5 6 7 3 7 3 6 10 22 43 58 62 66 74 79 83 85 73 64 60 56 55 56 55 59 63 78 71 68 69 68 63 52 49 47
8 5 13 14 4 11 12 11 11 8 4 11 21 15 58 4 11 12 11 25 34 45 57 65 71 82 74 67 61 58 56 60 59 71 75 78 77 65 77 72 68 64 59 56
4 10 6 10 10 7 8 12 3 6 2 16 7 13 35 19 21 12 18 44 40 40 50 58 67 80 79 72 64 59 60 64 65 77 77 80 72 83 80 76 72 71 68 62
14 10 24 13 21 16 14 15 11 14 9 9 5 16 12 13 27 27 29 27 25 30 43 52 60 76 79 71 65 61 64 66 70 76 77 79 80 79 80 78 75 71 67 60
13 11 2 6 4 21 11 11 8 9 4 3 10 15 17 19 20 39 16 22 20 27 40 48 56 70 73 69 64 62 67 71 74 75 74 73 74 77 77 71 71 68 63 57
8 4 1 3 8 8 12 12 8 5 7 12 11 12 18 17 18 14 12 23 22 26 35 43 54 67 67 62 58 62 64 69 71 73 74 75 76 79 74 76 73 68 62 55
12 7 1 5 11 20 7 7 4 9 9 8 6 13 14 12 5 14 18 19 24 27 33 41 53 60 60 60 62 63 68 71 72 71 71 74 75 76 80 79 74 66 57 51
16 8 8 15 2 2 5 18 17 9 12 8 4 23 6 8 6 12 22 12 17 25 30 40 51 56 59 60 61 66 71 72 72 72 73 73 77 81 84 78 72 64 57 51
18 6 4 7 2 1 11 11 29 10 6 15 10 18 0 1 7 9 12 7 11 21 30 41 53 59 61 63 64 69 73 73 74 75 73 75 82 88 85 78 70 62 56 50
21 8 14 24 9 10 12 15 21 24 14 13 34 45 41 5 11 11 6 7 11 20 31 40 54 61 65 69 71 75 76 74 76 77 76 80 90 90 87 80 72 64 57 49
11 18 18 20 10 8 13 14 29 38 54 25 45 31 63 23 23 35 36 32 30 35 42 50 58 66 69 73 77 79 83 83 81 80 79 86 91 91 86 80 71 64 57 49
8 12 19 32 32 23 22 19 36 37 39 36 52 46 63 12 22 33 48 39 41 48 56 59 60 66 70 76 81 83 87 86 85 84 86 90 96 94 88 81 73 66 58 52
10 24 18 47 22 21 22 65 35 36 38 41 42 62 56 17 33 57 52 44 63 71 71 68 68 68 71 74 79 85 87 85 87 88 91 95 98 95 89 82 75 68 61 55
11 6 3 8 5 26 19 7 25 37 45 47 47 45 39 51 65 57 55 56 68 70 73 69 69 67 65 68 74 79 83 86 87 89 93 97 97 94 89 85 79 73 65 58
21 22 16 13 24 18 6 7 14 19 34 40 38 43 64 81 32 72 62 59 63 66 64 63 62 66 60 62 65 75 80 82 86 93 96 97 97 96 96 91 85 77 70 62
9 9 14 7 9 12 8 6 11 9 19 13 36 41 38 14 7 24 27 28 29 35 42 39 39 44 50 53 59 68 75 81 93 100 98 97 99 101 99 94 88 79 70 65
9 7 25 16 8 6 12 9 16 10 13 4 13 27 11 12 18 12 16 15 10 11 15 19 23 31 37 47 55 64 71 74 81 93 99 99 102 97 95 93 89 83 80 73
13 13 7 6 10 14 27 11 18 9 6 2 4 8 16 28 31 22 10 7 6 7 13 18 23 30 39 46 52 60 62 63 74 79 86 92 92 93 94 95 92 88 88 76
7 12 10 17 13 2 43 5 26 14 12 6 7 9 12 12 20 14 10 10 8 8 13 19 24 28 37 43 49 59 59 63 67 70 76 82 90 94 97 99 96 92 96 84
10 8 6 3 10 10 15 27 19 20 18 11 9 10 11 12 16 16 9 6 3 3 5 8 14 22 31 36 42 45 49 54 58 61 66 72 79 86 97 100 101 100 106 99
6 9 7 8 10 9 25 29 23 31 28 20 19 16 14 14 16 16 11 8 6 6 8 9 9 10 12 18 25 31 36 41 46 50 54 60 69 82 91 100 112 114 113 108
14 13 10 11 15 7 12 12 19 37 38 38 30 23 21 20 17 15 14 12 10 11 13 14 11 12 13 14 14 19 25 30 36 44 48 51 56 64 75 87 100 104 107 105
Wind_Direction_850mb
157 130 198 211 200 164 150 199 235 247 246 205 235 239 259 246 230 243 244 239 236 236 237 232 231 226 222 220 221 221 219 208 201 204 207 214 221 216 201 201 213 206 203 216
71 224 220 146 162 199 186 214 248 298 232 191 269 260 242 243 229 239 242 243 241 238 235 228 224 222 221 222 221 219 217 214 207 209 210 209 218 206 213 209 220 212 198 206
180 213 181 172 160 169 218 213 239 232 315 241 305 270 226 246 233 243 248 252 249 242 235 225 221 221 219 220 219 218 216 215 210 205 207 209 202 225 201 183 197 181 184 183
239 228 150 163 192 172 223 202 201 240 96 257 10 294 200 228 239 225 245 246 244 243 243 235 224 222 220 219 217 217 214 212 209 212 214 221 207 188 190 186 180 177 179 173
236 176 178 184 198 159 222 137 177 196 195 327 185 271 106 194 251 254 253 252 252 252 249 241 229 223 218 217 216 213 211 208 207 204 205 196 195 202 189 181 176 180 176 174
224 148 154 206 110 151 142 85 59 58 69 271 194 174 283 181 217 254 304 271 263 255 249 238 229 219 213 213 212 212 210 207 207 212 213 212 203 200 185 183 178 174 177 176
139 212 206 166 91 51 116 103 313 331 9 246 329 208 252 309 293 246 284 288 291 258 238 228 221 211 209 209 207 209 207 205 206 203 205 199 207 195 189 185 183 178 179 178
175 263 174 191 186 182 189 162 160 205 208 274 299 240 251 239 274 277 278 290 287 248 232 228 219 210 208 208 208 206 206 206 209 211 214 214 205 194 188 186 184 180 177 175
176 267 200 189 117 152 191 196 170 82 84 4 233 290 295 266 279 268 282 278 256 240 230 224 215 208 207 209 210 209 208 208 210 213 211 206 204 194 194 190 185 182 179 177
212 240 205 124 106 45 162 161 95 78 197 237 273 265 234 282 278 328 272 256 245 225 228 225 213 206 208 211 212 211 215 214 213 213 210 206 199 197 196 190 185 184 182 180
159 166 242 116 203 176 136 170 166 131 160 192 293 258 215 233 272 299 301 287 237 228 222 217 212 210 211 211 214 214 211 213 214 211 209 205 201 196 191 189 187 185 183 180
203 155 182 201 174 303 249 191 175 148 207 225 147 268 175 212 273 301 312 311 235 228 222 216 213 215 216 216 216 213 210 212 214 213 209 203 197 193 192 190 188 185 184 179
174 187 166 314 46 357 216 210 200 132 75 208 180 259 231 321 287 286 303 309 226 224 217 217 217 217 221 222 218 214 214 214 214 213 210 202 197 193 192 191 189 187 185 183
146 160 193 228 191 137 186 184 199 186 207 161 227 259 257 311 275 273 303 284 254 238 236 228 220 220 222 224 220 217 216 217 216 214 210 202 197 197 195 192 191 189 187 187
176 207 200 245 224 203 197 190 200 206 223 199 248 226 260 224 238 261 276 261 235 238 239 241 232 226 222 221 222 220 219 217 216 216 211 206 203 198 196 194 192 191 190 188
205 236 171 251 230 229 236 221 212 217 236 233 248 252 256 202 254 266 258 252 240 244 252 248 241 234 230 225 224 222 221 219 217 215 212 208 202 199 197 195 194 193 192 191
199 222 205 242 226 199 226 235 223 222 231 227 232 242 263 259 260 257 260 261 263 265 264 259 250 243 238 233 228 225 224 221 217 214 212 207 204 200 197 197 196 197 197 196
179 241 206 244 150 221 236 145 218 211 232 230 238 250 257 257 264 271 267 267 271 273 268 260 252 249 244 236 230 226 223 221 216 214 212 208 205 203 201 200 200 200 200 199
214 220 249 247 248 266 240 219 154 165 244 231 228 244 254 260 279 280 277 277 272 269 270 277 268 252 241 235 229 224 221 219 216 216 214 211 208 207 206 204 203 202 201 197
199 216 219 213 206 228 266 238 161 80 265 193 198 232 244 166 246 271 282 276 279 272 266 268 261 246 239 236 229 225 224 221 219 218 216 214 213 212 211 209 206 205 203 202
169 187 214 223 244 242 255 162 161 137 239 239 215 251 213 201 226 269 294 282 284 283 265 254 242 240 239 233 227 226 224 227 226 221 219 217 216 218 219 214 211 208 206 207
178 176 187 199 224 247 172 117 184 194 126 150 268 280 259 254 258 252 252 251 261 245 235 234 235 229 224 226 224 223 227 229 225 226 226 225 223 224 220 218 216 213 212 220
231 194 190 198 208 263 181 182 195 164 151 187 249 269 261 240 233 244 255 262 253 253 250 248 243 234 233 234 234 233 232 229 230 229 233 228 226 223 225 224 221 223 218 225
212 188 218 98 250 229 226 238 220 214 230 230 252 270 262 239 221 218 213 222 216 237 245 236 229 230 233 237 239 243 241 240 241 238 233 233 230 227 223 225 224 226 223 230
183 143 189 269 272 293 250 243 242 240 256 249 237 231 220 214 208 204 208 228 233 235 232 218 217 217 218 226 234 238 240 240 239 240 239 236 234 232 230 228 228 230 232 234
190 184 181 218 224 210 251 275 278 243 242 236 233 227 222 217 220 223 229 242 252 241 227 217 200 167 168 186 209 223 230 234 236 237 239 239 238 237 236 235 234 233 231 232